Flag for USA

Past Weather in 40°46'11"N, 73°06'19"W, USA — Yesterday and Last 2 Weeks

Now
77 °F

Mostly cloudy.


Feels Like: 79 °F
Forecast: 78 / 72 °F
Wind: 12 mph from Southeast

Location: Republic Airport

Current Time: Jul 7, 2020 at 12:18:28 pm

Latest Report: Jul 7, 2020 at 11:53 am


Visibility: 10 mi

Pressure: 30.13 "Hg

Humidity: 77%

Dew Point: 69 °F

Location of 40°46'11"N, 73°06'19"WLocation

Past Weather in 40°46'11"N, 73°06'19"W — Graph

°F

40°46'11"N, 73°06'19"W Temperature Yesterday

Maximum temperature yesterday: 91 °F (at 11:53 am)
Minimum temperature yesterday: 73 °F (at 10:05 pm)
Average temperature yesterday: 79 °F

High & Low Weather Summary for the Past Weeks

 TemperatureHumidityPressure
High92 °F (Jul 3, 3:53 pm)90% (Jul 3, 11:53 pm)30.13 "Hg (Jul 3, 11:53 pm)
Low67 °F (Jun 27, 5:53 am)28% (Jun 25, 11:53 am)29.65 "Hg (Jun 24, 3:53 am)
Average77 °F68%29.87 "Hg
* Reported Jun 22 11:53 am — Jul 7 11:06 am, 40°46'11"N, 73°06'19"W. Weather by CustomWeather, © 2020

Note: Actual official high and low records may vary slightly from our data, if they occured in-between our weather recording intervals... More about our weather records

40°46'11"N, 73°06'19"W Weather History for the Previous 24 Hours

Scroll right to see more
 ConditionsComfort  
Time TempWeatherWind HumidityBarometerVisibility
11:06 am
Tue, Jul 7
76 °FMostly cloudy.9 mph77%30.13 "Hg10 mi
10:53 am75 °FMostly cloudy.9 mph79%30.13 "Hg10 mi
10:15 am76 °FMostly cloudy.9 mph77%30.13 "Hg10 mi
9:53 am76 °FMostly cloudy.12 mph77%30.13 "Hg10 mi
9:12 am76 °FMostly cloudy.8 mph77%30.13 "Hg10 mi
8:53 am76 °FMore clouds than sun.9 mph77%30.12 "Hg10 mi
8:38 am75 °FMore clouds than sun.9 mph79%30.12 "Hg10 mi
7:53 am74 °FMostly cloudy.8 mph82%30.13 "Hg10 mi
7:34 am74 °FMostly cloudy.9 mph82%30.13 "Hg10 mi
6:53 am73 °FMostly cloudy.7 mph84%30.13 "Hg10 mi
6:33 am73 °FMostly cloudy.6 mph84%30.13 "Hg10 mi
6:14 am73 °FMore clouds than sun.6 mph81%30.12 "Hg10 mi
5:53 am73 °FOvercast.6 mph81%30.12 "Hg10 mi
4:53 am72 °FMostly cloudy.5 mph84%30.12 "Hg10 mi
4:20 am72 °FOvercast.6 mph84%30.11 "Hg10 mi
3:53 am72 °FLow clouds.6 mph84%30.11 "Hg10 mi
2:53 am72 °FLow clouds.9 mph81%30.12 "Hg10 mi
1:53 am72 °FLow clouds.8 mph81%30.13 "Hg10 mi
12:53 am73 °FOvercast.13 mph79%30.13 "Hg10 mi
11:53 pm
Mon, Jul 6
73 °FOvercast.10 mph79%30.13 "Hg10 mi
11:02 pm73 °FPassing clouds.12 mph79%30.13 "Hg10 mi
10:53 pm73 °FPassing clouds.10 mph79%30.12 "Hg10 mi
10:05 pm73 °FPassing clouds.12 mph79%30.12 "Hg10 mi
8:53 pm74 °FOvercast.10 mph79%30.09 "Hg10 mi
7:53 pm75 °FOvercast.10 mph79%30.08 "Hg10 mi
7:09 pm74 °FLow clouds.12 mph85%30.07 "Hg10 mi
6:53 pm75 °FLight rain. Overcast.13 mph82%30.08 "Hg10 mi
6:44 pm75 °FOvercast.12 mph79%30.08 "Hg10 mi
6:09 pm76 °FThundershowers. Mostly cloudy.10 mph77%30.09 "Hg10 mi
5:53 pm76 °FPartly sunny.10 mph77%30.10 "Hg10 mi
5:26 pm76 °FScattered clouds.13 mph80%30.08 "Hg10 mi
4:53 pm77 °FPartly sunny.17 mph77%30.08 "Hg10 mi
4:42 pm78 °FPartly sunny.16 mph76%30.09 "Hg10 mi
3:53 pm81 °FSunny.14 mph69%30.04 "Hg10 mi
2:53 pm89 °FSunny.13 mph43%30.01 "Hg10 mi
1:53 pm90 °FSunny.9 mph42%30.02 "Hg10 mi
12:53 pm90 °FSunny.12 mph45%30.03 "Hg10 mi
Weather by CustomWeather, © 2020

See weather overview